User: anonymous
Location: Oronoko Observatory
(41.9167°N, 86.3833°W)
Time: 22:47:51
(UTC-04:00)
Language:

PAYLOAD A - Orbit

View from above orbital plane
View from above orbital plane
View from above satellite
View from above satellite

Ground track
Ground track

The orbit data is extracted from the following two-line orbital elements,

1 27840U 03031A   14110.84454508  .00000161  00000-0  63131-4 0  5209
2 27840 098.2410 141.6749 0098032 355.6472 186.4340 14.38696266567468
Epoch (UTC): 20 April 2014 20:16:08
Eccentricity: 0.0098032
inclination: 98.2410°
perigee height: 693 km
apogee height: 833 km
right ascension of ascending node: 141.6749°
argument of perigee: 355.6472°
revolutions per day: 14.38696266
mean anomaly at epoch: 186.4340°
orbit number at epoch: 56746

The dashed part of the orbit path shows where the satellite is in the earth's shadow,  

DLR